SL-16 DEB, 39854

Orbit data source: Space-Track

SL-16 DEB, 39854 is space debris in LEO originally from a launch on Fri, 25 Dec 1992 UTC launched from the Tyuratam Missile And Space Complex (TTMTR). Debris objects in space refer to the collection of defunct objects orbiting the Earth. Examples of debris include non-operational satellites, rocket bodies, and fragments generated from explosions, collisions, or faulty payload assembly.

Loading next visibility...
Identifier
39854, 1992-093LG
Orbit
LEO
Country
Flag of CISCIS
Related business
Manufacturer
Unknown
Mission
Spacecraft
Bus & Motor
Unknown
Mass
Unknown
Launch date (UTC)
1992-12-25 (33 years ago)
Launch vehicle
Unknown
Launch site
Tyuratam Missile And Space Complex (TTMTR)
Object type
Payload
Rocket body
Debris
Shape & HBR
Unknown shape, 0.1 m
Radar Cross Section
Small (<0.1 m²)

Expand to show TLE details & history
Last TLE update: 5 days ago

TLE from 5 days ago
0 SL-16 DEB
1 39854U 92093LG  26032.48955741  .00001533  00000-0  72341-3 0  9990
2 39854  71.0097 114.0256 0076854   1.4794 358.6544 14.19863932601276
Epoch: 2026-02-01T11:44Z
TLE epoch observation values (Epoch: 2026-02-01T11:44:57.760Z)
Latitude
0.00005°
Longitude
166.08649°
Altitude
772.862 km
Speed
7.497 km/s
True Right ascension
07h 36m 06s
True Declination
0° 00' 00"
Sunlit
Object was in full shadow at epoch
Visualization orbit readout
Latitude
Unknown
Longitude
Unknown
Altitude
Unknown
Speed
Unknown
Apparent Right ascension
Unknown
Apparent Declination
Unknown
Sunlit
N/A
Visualization observer readout
Local Sidereal Time
12:08:32
Azimuth
Unknown
Elevation
Unknown
Doppler factor
Unknown
Orbital elements
Apogee altitude
879.081 km
Perigee altitude
768.383 km
Semi-major axis
7,201.869 km
Eccentricity
0.00769
Inclination
71.0097°
RAAN
114.0256°
Arg. of periapsis
1.4794°
True anomaly
358.63352°
Mean anomaly
358.6544°
Eccentric anomaly
358.64398°
Mean motion
3.5512 °/min
Orbital period
101.37 mins
BSTAR
0.00072341
Loading maneuver chart data...
Computing Atmospheric mass density...
Loading historical data...
Loading historical data...
Loading historical data...
Loading historical data...
Loading historical data...
Loading historical data...
Loading historical data...

Documentation

Showing up to 5 results
|